Weather History for KVIH - August, 2014

Change the Weather History Date:

Tuesday, August 19, 2014

  Actual Average Record
Temperature  
Mean Temperature 79 °F 76 °F  
Max Temperature 89 °F 88 °F 104 °F (1962)
Min Temperature 68 °F 65 °F 55 °F (1953)
Degree Days  
Heating Degree Days 0 0  
Month to date heating degree days 0 0  
Since 1 June heating degree days 4 15  
Since 1 July heating degree days 3 1  
Cooling Degree Days 14 11  
Month to date cooling degree days 188 233  
Year to date cooling degree days 834 957  
Since 1 June cooling degree days 687 850  
Growing Degree Days 28 (Base 50)    
Moisture  
Dew Point 67 °F    
Average Humidity 69    
Maximum Humidity 90    
Minimum Humidity 47    
Precipitation  
Precipitation 0.01 in 0.12 in 2.46 in (1949)
Month to date precipitation 2.88 2.22  
Year to date precipitation 15.92 28.10  
Sea Level Pressure  
Sea Level Pressure 29.81 in    
Wind  
Wind Speed 6 mph (SSW)    
Max Wind Speed 13 mph    
Max Gust Speed 16 mph    
Visibility 10 miles    
Events      
T = Trace of Precipitation, MM = Missing Value Source: NWS Daily Summary

Daily Weather History Graph

Daily Weather History Graph

Search for Another Location

Airport or City:

Trip Planner

Search our weather history database for the weather conditions in past years. The results will help you decide how hot, cold, wet, or windy it might be!

Date:

Astronomy

Aug. 19, 2014 Rise Set
Actual Time 6:25 AM CDT 7:55 PM CDT
Civil Twilight 5:57 AM CDT 8:22 PM CDT
Nautical Twilight 5:24 AM CDT 8:56 PM CDT
Astronomical Twilight 4:48 AM CDT 9:31 PM CDT
Moon 1:19 AM CDT (8/19) 3:50 PM CDT (8/19)
Length of Visible Light 14h 25m
Length of Day
13h 29m
Waning Crescent, 29% of the Moon is Illuminated
Aug 19
Waning Crescent
Aug 25
New
Sep 2
First Quarter
Sep 8
Full
Sep 15
Last Quarter

Hourly Weather History & Observations

Time (CDT) Temp. Heat Index Dew Point Humidity Pressure Visibility Wind Dir Wind Speed Gust Speed Precip Events Conditions
12:53 AM 71.1 °F - 66.0 °F 84% 29.81 in 10.0 mi South 6.9 mph - N/A   Clear
1:53 AM 69.1 °F - 66.0 °F 90% 29.78 in 10.0 mi South 3.5 mph - N/A   Clear
2:53 AM 68.0 °F - 64.9 °F 90% 29.79 in 10.0 mi South 6.9 mph - N/A   Clear
3:53 AM 70.0 °F - 66.0 °F 87% 29.78 in 10.0 mi SSW 8.1 mph - N/A   Clear
4:53 AM 69.1 °F - 66.0 °F 90% 29.77 in 10.0 mi SSW 9.2 mph - N/A   Clear
5:53 AM 69.1 °F - 66.0 °F 90% 29.79 in 10.0 mi SW 9.2 mph - N/A   Clear
6:53 AM 69.8 °F - 66.2 °F 88% 29.83 in 10.0 mi SW 9.2 mph - N/A   Partly Cloudy
7:53 AM 72.0 °F - 66.9 °F 84% 29.80 in 10.0 mi SSW 10.4 mph - N/A   Clear
8:53 AM 73.9 °F - 68.0 °F 82% 29.81 in 10.0 mi WSW 6.9 mph - N/A   Clear
9:53 AM 73.9 °F - 70.0 °F 87% 29.83 in 10.0 mi SSW 5.8 mph - 0.01 in   Scattered Clouds
10:53 AM 77.0 °F - 69.1 °F 76% 29.84 in 10.0 mi SW 6.9 mph - N/A   Clear
11:53 AM 80.1 °F 82.9 °F 69.1 °F 69% 29.83 in 10.0 mi SW 6.9 mph - N/A   Clear
12:53 PM 82.0 °F 84.9 °F 68.0 °F 62% 29.82 in 10.0 mi South 6.9 mph - N/A   Clear
1:53 PM 84.9 °F 88.8 °F 69.1 °F 59% 29.83 in 10.0 mi SW 6.9 mph - N/A   Clear
2:53 PM 87.1 °F 89.9 °F 66.9 °F 51% 29.81 in 10.0 mi SSW 6.9 mph - N/A   Clear
3:53 PM 89.6 °F 92.2 °F 66.2 °F 46% 29.83 in 10.0 mi SW 5.8 mph - N/A   Clear
4:53 PM 89.1 °F 91.3 °F 66.0 °F 46% 29.78 in 10.0 mi SW 10.4 mph - N/A   Clear
5:53 PM 88.0 °F 90.3 °F 66.0 °F 48% 29.78 in 10.0 mi WSW 6.9 mph - N/A   Clear
6:53 PM 87.1 °F 89.9 °F 66.9 °F 51% 29.78 in 10.0 mi WNW 3.5 mph - N/A   Clear
7:53 PM 80.1 °F 83.2 °F 70.0 °F 71% 29.78 in 10.0 mi East 3.5 mph - N/A   Clear
8:53 PM 75.0 °F - 69.1 °F 82% 29.80 in 10.0 mi Calm Calm - N/A   Clear
9:53 PM 73.0 °F - 68.0 °F 84% 29.82 in 10.0 mi SE 4.6 mph - N/A   Clear
10:53 PM 73.0 °F - 68.0 °F 84% 29.83 in 10.0 mi Calm Calm - N/A   Clear
11:53 PM 73.0 °F - 66.9 °F 81% 29.83 in 10.0 mi SW 4.6 mph - N/A   Clear